GW1174 Weather Reports


time (UTC)temp
C
wind
direction
speed
KPH
gust
KPH
rain 1hr
cm
rain 24hr
cm
rain mn
cm
humidity
%
barometer
mb
20260905065017 14 203 3.2 6.4 0.00 0.23 0.23 92 1019.9
20260905064017 0 360 0.0 0.0 0.00 0.51 0.51 80 1120.0
20260905063017 13 158 4.8 9.7 0.00 0.23 0.23 92 1019.7
20260905062017 13 158 3.2 6.4 0.00 0.23 0.23 92 1019.6
20260905061017 13 158 3.2 6.4 0.00 0.23 0.23 92 1019.6
20260905060017 1 360 0.0 0.0 0.00 0.51 0.51 80 1119.9
20260905055017 12 0.0 0.0 0.00 0.23 0.23 91 1019.4
20260905054017 1 359 0.0 0.0 0.00 0.51 0.51 80 1119.8
20260905053017 12 0.0 1.6 0.00 0.23 0.23 91 1019.4
20260905052017 2 358 0.0 0.0 0.00 0.51 0.51 80 1119.6
20260905051017 2 357 0.0 0.0 0.00 0.51 0.51 80 1119.5
20260905050017 3 357 0.0 0.0 0.00 0.51 0.51 79 1119.3
20260905045017 12 0.0 0.0 0.00 0.23 0.23 90 1019.0
20260905044017 12 0.0 0.0 0.00 0.23 0.23 90 1018.8
20260905043037 4 354 0.0 0.0 0.00 0.51 0.51 79 1118.8
20260905043018 12 0.0 1.6 0.00 0.23 0.23 90 1018.6
20260905042037 5 353 0.0 0.0 0.00 0.51 0.51 79 1118.6
20260905041017 5 352 0.0 0.0 0.00 0.51 0.51 79 1118.4
20260905040017 5 351 0.0 0.0 0.00 0.51 0.51 78 1118.2
20260905035057 12 0.0 1.6 0.00 0.23 0.23 88 1018.6
20260905034017 12 0.0 1.6 0.03 0.23 0.23 88 1018.1
20260905033017 7 347 0.0 0.0 0.00 0.51 0.51 78 1117.4
20260905032017 7 345 0.0 1.6 0.00 0.51 0.51 78 1117.0
20260905031017 7 344 0.0 1.6 0.00 0.51 0.51 77 1116.7
20260905030017 8 342 1.6 1.6 0.00 0.51 0.51 77 1116.4
20260905025017 8 340 1.6 1.6 0.00 0.51 0.51 77 1116.1
20260905024017 13 0.0 3.2 0.20 0.23 0.23 85 1018.4
20260905023017 10 336 1.6 1.6 0.00 0.51 0.51 76 1115.3
20260905022017 10 334 1.6 1.6 0.00 0.51 0.51 76 1114.9
20260905021017 11 332 1.6 1.6 0.00 0.51 0.51 75 1114.5
20260905020017 11 330 1.6 1.6 0.00 0.51 0.51 75 1114.1
20260905015017 11 328 1.6 1.6 0.03 0.51 0.51 75 1113.7
20260905014017 12 326 1.6 1.6 0.05 0.51 0.51 74 1113.2
20260905013017 12 323 1.6 1.6 0.08 0.51 0.51 74 1112.7
20260905012017 13 321 1.6 1.6 0.10 0.51 0.51 73 1112.3
20260905011017 13 318 1.6 1.6 0.13 0.51 0.51 73 1111.8
20260905010037 13 316 1.6 1.6 0.15 0.51 0.51 73 1111.3
20260905005037 14 313 1.6 3.2 0.15 0.51 0.48 72 1110.8
20260905004017 15 311 1.6 3.2 0.15 0.51 0.46 72 1110.2
20260905003017 15 308 1.6 3.2 0.18 0.51 0.43 71 1109.7
20260905002016 16 305 3.2 3.2 0.18 0.51 0.41 71 1109.1
20260905001017 16 302 3.2 3.2 0.18 0.51 0.38 70 1108.6
20260905000017 16 299 3.2 3.2 0.18 0.51 0.36 70 1108.0
20260904235037 17 296 3.2 3.2 0.18 0.51 0.33 69 1107.4
20260904234017 17 293 3.2 3.2 0.18 0.51 0.30 69 1106.8
20260904233017 17 290 3.2 3.2 0.15 0.51 0.25 68 1106.2
20260904232017 18 287 3.2 3.2 0.15 0.51 0.23 68 1105.6
20260904231037 18 284 3.2 4.8 0.15 0.51 0.20 67 1105.0
20260904230017 18 281 3.2 4.8 0.18 0.51 0.18 67 1104.3
20260904225017 18 277 3.2 4.8 0.15 0.51 0.15 66 1103.7
20260904224017 19 274 3.2 4.8 0.13 0.51 0.13 66 1103.0
20260904223017 19 271 3.2 4.8 0.10 0.51 0.10 65 1102.3
20260904222017 20 267 4.8 4.8 0.08 0.51 0.08 65 1101.7
20260904221017 20 264 4.8 4.8 0.05 0.51 0.05 64 1101.0
20260904220017 20 260 4.8 4.8 0.00 0.51 0.00 63 1100.3
20260904215017 20 257 4.8 4.8 0.00 0.51 0.51 63 1099.6
20260904214017 20 253 4.8 6.4 0.00 0.51 0.51 62 1098.9
20260904213017 20 250 4.8 6.4 0.00 0.51 0.51 62 1098.2
20260904212017 20 246 4.8 6.4 0.00 0.51 0.51 61 1097.5
20260904211017 22 225 3.2 6.4 0.00 0.00 0.00 65 1013.6
20260904210017 22 248 4.8 11.3 0.00 0.00 0.00 65 1013.5
20260904205017 21 235 4.8 6.4 0.00 0.51 0.51 59 1095.3
20260904204037 22 203 6.4 14.5 0.00 0.00 0.00 65 1013.3
20260904203017 21 227 6.4 6.4 0.00 0.51 0.51 58 1093.8
20260904202017 21 224 6.4 8.0 0.00 0.51 0.51 57 1093.0
20260904201017 21 220 6.4 8.0 0.00 0.51 0.51 57 1092.3
20260904200017 22 225 8.0 19.3 0.00 0.00 0.00 66 1013.1
20260904195038 22 180 4.8 8.0 0.00 0.00 0.00 65 1013.1
20260904194016 22 203 6.4 9.7 0.00 0.00 0.00 65 1012.9
20260904193017 23 180 4.8 9.7 0.00 0.00 0.00 64 1013.0
20260904192017 20 201 6.4 8.0 0.00 0.51 0.51 53 1088.4
20260904191057 20 197 8.0 8.0 0.00 0.51 0.51 53 1087.7
20260904190017 20 193 8.0 9.7 0.00 0.51 0.51 52 1086.9
20260904185017 23 203 6.4 12.9 0.00 0.00 0.00 61 1012.9
20260904184017 20 185 8.0 9.7 0.00 0.51 0.51 51 1085.3
20260904183017 19 181 8.0 9.7 0.00 0.51 0.51 50 1084.6
20260904182017 19 177 8.0 9.7 0.00 0.51 0.51 49 1083.8
20260904181016 18 173 8.0 9.7 0.00 0.51 0.51 49 1083.0
20260904180017 18 169 8.0 9.7 0.00 0.51 0.51 48 1082.2
20260904175017 18 165 8.0 11.3 0.00 0.51 0.51 48 1081.5
20260904174016 26 225 9.7 19.3 0.00 0.00 0.00 56 1012.7
20260904173017 17 157 9.7 11.3 0.00 0.51 0.51 46 1079.9
20260904172017 17 154 9.7 11.3 0.00 0.51 0.51 46 1079.2
20260904171017 17 150 9.7 11.3 0.00 0.51 0.51 45 1078.4
20260904170037 16 146 9.7 11.3 0.00 0.51 0.51 44 1077.6
20260904165037 16 142 9.7 11.3 0.00 0.51 0.51 44 1076.9
20260904164017 16 138 9.7 11.3 0.00 0.51 0.51 43 1076.1
20260904163017 15 134 9.7 12.9 0.00 0.51 0.51 42 1075.4
20260904162017 15 131 9.7 12.9 0.00 0.51 0.51 42 1074.6
20260904161017 15 127 9.7 12.9 0.00 0.51 0.51 41 1073.9
20260904160017 14 123 11.3 12.9 0.00 0.51 0.51 41 1073.1
20260904155017 13 119 11.3 12.9 0.00 0.51 0.51 40 1072.4
20260904154022 27 203 11.3 24.1 0.00 0.10 0.00 53 1013.0
20260904154017 13 116 11.3 12.9 0.00 0.51 0.51 39 1071.7
20260904153017 12 112 11.3 12.9 0.00 0.51 0.51 39 1070.9
20260904152017 12 108 11.3 12.9 0.00 0.51 0.51 38 1070.2
20260904151041 27 203 16.1 25.7 0.00 0.15 0.00 52 1013.4
20260904151037 12 105 11.3 14.5 0.00 0.51 0.51 37 1069.5
20260904150017 11 101 11.3 14.5 0.00 0.51 0.51 37 1068.8
20260904145017 27 225 14.5 24.1 0.00 0.25 0.00 54 1013.6
20260904144017 10 94 11.3 14.5 0.00 0.51 0.51 36 1067.4
20260904143017 10 91 11.3 14.5 0.00 0.51 0.51 35 1066.7
20260904142017 9 87 12.9 14.5 0.00 0.51 0.51 35 1066.1
20260904141017 8 84 12.9 14.5 0.00 0.51 0.51 34 1065.4
20260904140017 8 81 12.9 14.5 0.00 0.51 0.51 33 1064.8
20260904135017 8 78 12.9 14.5 0.00 0.51 0.51 33 1064.1
20260904134037 7 74 12.9 16.1 0.00 0.51 0.51 32 1063.5
20260904133018 27 203 12.9 27.4 0.00 0.48 0.00 56 1014.4
20260904132018 27 225 11.3 22.5 0.00 0.51 0.00 56 1014.5
20260904131018 27 203 14.5 30.6 0.00 0.53 0.00 56 1014.7
20260904130017 6 62 12.9 16.1 0.00 0.51 0.51 30 1061.0
20260904125018 26 225 14.5 24.1 0.00 0.53 0.00 57 1015.0
20260904124017 5 56 12.9 16.1 0.00 0.51 0.51 29 1059.9
20260904123017 26 225 14.5 25.7 0.00 0.53 0.00 59 1015.2
20260904122018 26 225 11.3 25.7 0.00 0.53 0.00 57 1015.8
20260904121017 27 203 12.9 24.1 0.00 0.53 0.00 57 1016.0
20260904120017 3 45 14.5 17.7 0.00 0.51 0.51 28 1057.7
20260904115018 26 270 12.9 22.5 0.00 0.53 0.00 61 1016.0
20260904114017 2 40 14.5 17.7 0.00 0.51 0.51 27 1056.7
20260904113018 26 225 12.9 22.5 0.00 0.53 0.00 62 1016.2
20260904112018 25 203 16.1 33.8 0.00 0.53 0.00 63 1016.2
20260904111017 1 33 14.5 17.7 0.00 0.51 0.51 26 1055.3
20260904110037 1 31 14.5 17.7 0.00 0.51 0.51 25 1054.9
20260904105017 24 225 14.5 33.8 0.00 0.53 0.00 64 1016.3
20260904104018 24 225 16.1 27.4 0.00 0.53 0.00 65 1016.4
20260904104016 0 27 14.5 17.7 0.00 0.51 0.51 24 1054.0
20260904103017 25 270 12.9 30.6 0.00 0.53 0.00 67 1016.5
20260904102017 24 225 14.5 29.0 0.00 0.53 0.00 69 1016.6
20260904101017 0 21 14.5 17.7 0.00 0.51 0.51 23 1052.9
20260904100037 0 19 14.5 17.7 0.00 0.51 0.51 23 1052.5
20260904095017 23 225 11.3 20.9 0.00 0.53 0.00 76 1017.3
20260904094017 22 203 9.7 17.7 0.00 0.53 0.00 77 1017.3
20260904093017 22 180 11.3 20.9 0.00 0.53 0.00 80 1017.6
20260904092019 21 203 9.7 20.9 0.00 0.53 0.00 83 1017.6
20260904092017 0 13 16.1 19.3 0.00 0.51 0.51 22 1051.3
20260904091018 20 203 9.7 16.1 0.00 0.53 0.00 85 1017.7
20260904090017 20 180 6.4 12.9 0.00 0.53 0.00 87 1017.7
20260904085037 -1 9 16.1 19.3 0.00 0.51 0.51 21 1050.5
20260904085017 19 180 6.4 12.9 0.00 0.53 0.00 89 1018.0
20260904084017 18 225 6.4 9.7 0.00 0.53 0.00 90 1018.0
20260904083017 18 203 9.7 17.7 0.00 0.53 0.00 91 1017.9
20260904082017 -1 5 16.1 19.3 0.00 0.51 0.51 21 1049.8
20260904081017 17 203 8.0 14.5 0.00 0.53 0.00 93 1018.0
20260904080017 17 203 6.4 11.3 0.00 0.53 0.00 94 1018.2
20260904075017 17 203 6.4 8.0 0.00 0.53 0.00 94 1018.1
20260904074017 -1 2 16.1 19.3 0.00 0.51 0.51 20 1049.2
20260904073037 0 2 16.1 19.3 0.00 0.51 0.51 20 1049.1
20260904072017 16 180 6.4 9.7 0.00 0.53 0.00 94 1018.2
20260904071037 16 180 6.4 9.7 0.00 0.53 0.00 94 1018.2
20260904070017 0 0 16.1 19.3 0.00 0.51 0.51 20 1048.9